| time (UTC) | temp F | wind direction | speed knots | gust knots | rain 1hr in | rain 24hr in | rain mn in | humidity % | barometer mb |
| 20260508100040 | 59 | 0 | 0.0 | 3.5 | 0.00 | 0.25 | 0.00 | 86 | 1013.2 |
| 20260508094551 | 58 | 300 | 1.7 | 5.2 | 0.00 | 0.25 | 0.00 | 86 | 1013.5 |
| 20260508093052 | 58 | 296 | 4.3 | 9.6 | 0.00 | 0.24 | 0.00 | 86 | 1013.8 |
| 20260508091543 | 58 | 279 | 5.2 | 8.7 | 0.00 | 0.24 | 0.00 | 87 | 1014.0 |
| 20260508084539 | 57 | 0 | 0.9 | 3.5 | 0.00 | 0.24 | 0.00 | 87 | 1013.2 |
| 20260508083041 | 57 | 308 | 1.7 | 4.3 | 0.00 | 0.24 | 0.00 | 87 | 1013.4 |
| 20260508081539 | 57 | 0 | 0.0 | 3.5 | 0.00 | 0.24 | 0.00 | 87 | 1013.4 |
| 20260508080040 | 57 | 327 | 0.0 | 4.3 | 0.00 | 0.24 | 0.00 | 88 | 1013.1 |
| 20260508074541 | 57 | 331 | 1.7 | 5.2 | 0.00 | 0.24 | 0.00 | 88 | 1012.8 |
| 20260508073036 | 57 | 315 | 1.7 | 5.2 | 0.00 | 0.24 | 0.00 | 88 | 1012.7 |
| 20260508071542 | 57 | 346 | 1.7 | 4.3 | 0.00 | 0.24 | 0.00 | 89 | 1012.5 |
| 20260508070041 | 56 | 340 | 1.7 | 3.5 | 0.00 | 0.24 | 0.00 | 89 | 1012.5 |
| 20260508064538 | 55 | 346 | 0.0 | 3.5 | 0.00 | 0.24 | 0.00 | 90 | 1012.4 |
| 20260508063037 | 55 | 324 | 1.7 | 3.5 | 0.00 | 0.24 | 0.00 | 89 | 1012.5 |
| 20260508061542 | 54 | 344 | 0.9 | 2.6 | 0.00 | 0.24 | 0.00 | 89 | 1012.3 |
| 20260508060043 | 54 | 350 | 0.9 | 2.6 | 0.00 | 0.24 | 0.00 | 89 | 1011.9 |
| 20260508054602 | 54 | 0 | 0.0 | 2.6 | 0.00 | 0.24 | 0.00 | 89 | 1011.6 |
| 20260508053041 | 54 | 301 | 1.7 | 4.3 | 0.00 | 0.24 | 0.00 | 89 | 1011.8 |
| 20260508051539 | 54 | 312 | 2.6 | 5.2 | 0.00 | 0.24 | 0.00 | 89 | 1011.7 |
| 20260508050043 | 54 | 320 | 4.3 | 7.8 | 0.00 | 0.24 | 0.00 | 89 | 1011.5 |
| 20260508044553 | 54 | 320 | 2.6 | 4.3 | 0.00 | 0.24 | 0.00 | 89 | 1011.3 |
| 20260508043040 | 54 | 312 | 2.6 | 4.3 | 0.00 | 0.24 | 0.00 | 89 | 1011.3 |
| 20260508041548 | 54 | 310 | 2.6 | 6.1 | 0.00 | 0.24 | 0.00 | 89 | 1011.4 |
| 20260508040043 | 54 | 302 | 1.7 | 4.3 | 0.00 | 0.24 | 0.00 | 89 | 1011.1 |
| 20260508034542 | 54 | 288 | 1.7 | 4.3 | 0.00 | 0.24 | 0.00 | 89 | 1010.9 |
| 20260508033040 | 54 | 0 | 0.0 | 0.0 | 0.00 | 0.24 | 0.00 | 89 | 1011.0 |
| 20260508031553 | 54 | 0 | 0.0 | 1.7 | 0.00 | 0.24 | 0.00 | 89 | 1011.2 |
| 20260508030051 | 54 | 316 | 0.0 | 2.6 | 0.00 | 0.24 | 0.00 | 89 | 1011.5 |
| 20260508024536 | 54 | 0 | 0.0 | 1.7 | 0.00 | 0.24 | 0.00 | 88 | 1011.5 |
| 20260508023046 | 54 | 0 | 0.0 | 2.6 | 0.00 | 0.24 | 0.00 | 89 | 1011.6 |
| 20260508021539 | 54 | 0 | 0.0 | 2.6 | 0.00 | 0.24 | 0.00 | 89 | 1011.6 |
| 20260508020038 | 55 | 314 | 0.9 | 2.6 | 0.00 | 0.24 | 0.00 | 88 | 1011.7 |
| 20260508014539 | 55 | 0 | 0.0 | 2.6 | 0.00 | 0.24 | 0.00 | 88 | 1011.7 |
| 20260508013043 | 55 | 0 | 0.9 | 3.5 | 0.00 | 0.24 | 0.00 | 88 | 1011.8 |
| 20260508011544 | 55 | 324 | 1.7 | 4.3 | 0.00 | 0.24 | 0.00 | 88 | 1012.0 |
| 20260508010042 | 55 | 304 | 0.0 | 2.6 | 0.00 | 0.24 | 0.00 | 88 | 1012.1 |
| 20260508004540 | 56 | 282 | 1.7 | 4.3 | 0.00 | 0.24 | 0.00 | 88 | 1012.5 |
| 20260508003036 | 56 | 293 | 0.9 | 3.5 | 0.00 | 0.24 | 0.00 | 88 | 1012.6 |
| 20260508001537 | 56 | 295 | 1.7 | 2.6 | 0.00 | 0.24 | 0.00 | 88 | 1012.7 |
| 20260508000042 | 56 | 275 | 1.7 | 4.3 | 0.00 | 0.24 | 0.00 | 88 | 1012.9 |
| 20260507234540 | 56 | 296 | 1.7 | 4.3 | 0.00 | 0.24 | 0.00 | 88 | 1013.1 |
| 20260507233040 | 56 | 320 | 2.6 | 7.0 | 0.00 | 0.24 | 0.00 | 88 | 1013.2 |
| 20260507231544 | 57 | 292 | 2.6 | 7.0 | 0.00 | 0.24 | 0.00 | 88 | 1013.2 |
| 20260507230041 | 57 | 287 | 3.5 | 6.1 | 0.00 | 0.24 | 0.00 | 88 | 1013.4 |
| 20260507224554 | 57 | 292 | 2.6 | 7.0 | 0.00 | 0.24 | 0.00 | 87 | 1013.1 |
| 20260507223044 | 57 | 309 | 1.7 | 4.3 | 0.00 | 0.24 | 0.00 | 87 | 1013.2 |
| 20260507221540 | 58 | 345 | 0.9 | 2.6 | 0.00 | 0.24 | 0.00 | 87 | 1012.9 |
| 20260507220042 | 58 | 0 | 0.9 | 2.6 | 0.00 | 0.24 | 0.00 | 87 | 1012.7 |
| 20260507214541 | 58 | 324 | 0.9 | 3.5 | 0.00 | 0.24 | 0.24 | 87 | 1012.8 |
| 20260507213047 | 58 | 38 | 0.9 | 2.6 | 0.00 | 0.24 | 0.24 | 87 | 1012.8 |
| 20260507211539 | 58 | 39 | 0.9 | 2.6 | 0.00 | 0.24 | 0.24 | 87 | 1012.5 |
| 20260507210106 | 58 | 43 | 1.7 | 3.5 | 0.00 | 0.24 | 0.24 | 87 | 1012.7 |
| 20260507204537 | 58 | 27 | 0.9 | 3.5 | 0.00 | 0.24 | 0.24 | 87 | 1012.8 |
| 20260507203035 | 58 | 39 | 1.7 | 3.5 | 0.00 | 0.24 | 0.24 | 87 | 1012.7 |
| 20260507201539 | 58 | 36 | 0.9 | 4.3 | 0.00 | 0.24 | 0.24 | 87 | 1012.6 |
| 20260507200052 | 58 | 34 | 1.7 | 5.2 | 0.00 | 0.24 | 0.24 | 87 | 1012.5 |
| 20260507194537 | 58 | 5 | 2.6 | 5.2 | 0.00 | 0.24 | 0.24 | 87 | 1012.4 |
| 20260507193102 | 58 | 49 | 2.6 | 7.0 | 0.00 | 0.24 | 0.24 | 87 | 1012.0 |
| 20260507191534 | 58 | 73 | 3.5 | 7.8 | 0.00 | 0.24 | 0.24 | 86 | 1011.7 |
| 20260507190041 | 58 | 98 | 3.5 | 6.1 | 0.03 | 0.24 | 0.24 | 86 | 1011.5 |
| 20260507184539 | 58 | 72 | 1.7 | 5.2 | 0.07 | 0.24 | 0.24 | 86 | 1011.5 |
| 20260507183040 | 58 | 61 | 5.2 | 8.7 | 0.15 | 0.24 | 0.24 | 86 | 1011.3 |
| 20260507181539 | 58 | 33 | 5.2 | 12.2 | 0.18 | 0.23 | 0.23 | 86 | 1010.9 |
| 20260507180037 | 58 | 47 | 7.0 | 12.2 | 0.18 | 0.20 | 0.20 | 85 | 1011.2 |
| 20260507174541 | 59 | 333 | 5.2 | 11.3 | 0.16 | 0.17 | 0.17 | 84 | 1011.1 |
| 20260507173045 | 60 | 298 | 0.9 | 5.2 | 0.07 | 0.08 | 0.08 | 83 | 1011.1 |
| 20260507171539 | 60 | 21 | 1.7 | 6.1 | 0.04 | 0.05 | 0.05 | 83 | 1011.1 |
| 20260507170040 | 61 | 278 | 3.5 | 10.4 | 0.01 | 0.02 | 0.02 | 82 | 1010.7 |
| 20260507164538 | 62 | 39 | 1.7 | 7.0 | 0.00 | 0.00 | 0.00 | 82 | 1010.6 |
| 20260507163041 | 63 | 131 | 6.1 | 11.3 | 0.00 | 0.00 | 0.00 | 82 | 1010.0 |
| 20260507161544 | 63 | 126 | 8.7 | 13.9 | 0.00 | 0.00 | 0.00 | 82 | 1009.8 |
| 20260507160059 | 64 | 115 | 4.3 | 11.3 | 0.00 | 0.00 | 0.00 | 82 | 1010.0 |
| 20260507154538 | 65 | 88 | 9.6 | 13.9 | 0.00 | 0.00 | 0.00 | 82 | 1009.9 |
| 20260507153038 | 65 | 99 | 6.1 | 9.6 | 0.00 | 0.00 | 0.00 | 80 | 1009.9 |
| 20260507151536 | 65 | 145 | 6.1 | 10.4 | 0.00 | 0.00 | 0.00 | 78 | 1010.0 |
| 20260507150043 | 66 | 126 | 7.0 | 11.3 | 0.00 | 0.00 | 0.00 | 79 | 1009.9 |
| 20260507144549 | 65 | 121 | 5.2 | 10.4 | 0.00 | 0.00 | 0.00 | 78 | 1009.7 |
| 20260507143038 | 65 | 116 | 7.8 | 13.0 | 0.00 | 0.00 | 0.00 | 80 | 1009.8 |
| 20260507141540 | 65 | 126 | 6.1 | 11.3 | 0.00 | 0.00 | 0.00 | 81 | 1009.7 |
| 20260507140037 | 65 | 141 | 4.3 | 10.4 | 0.00 | 0.00 | 0.00 | 80 | 1009.8 |
| 20260507134549 | 65 | 188 | 5.2 | 11.3 | 0.00 | 0.00 | 0.00 | 78 | 1010.1 |
| 20260507133043 | 66 | 187 | 2.6 | 9.6 | 0.00 | 0.00 | 0.00 | 78 | 1010.2 |
| 20260507131539 | 65 | 109 | 7.0 | 11.3 | 0.00 | 0.00 | 0.00 | 77 | 1010.1 |
| 20260507130042 | 66 | 121 | 8.7 | 16.5 | 0.00 | 0.00 | 0.00 | 75 | 1010.3 |
| 20260507124538 | 67 | 105 | 11.3 | 19.1 | 0.00 | 0.00 | 0.00 | 72 | 1010.6 |
| 20260507123042 | 67 | 98 | 9.6 | 17.4 | 0.00 | 0.00 | 0.00 | 71 | 1010.6 |
| 20260507121540 | 67 | 96 | 11.3 | 16.5 | 0.00 | 0.00 | 0.00 | 70 | 1010.7 |
| 20260507120040 | 67 | 101 | 12.2 | 17.4 | 0.00 | 0.00 | 0.00 | 70 | 1010.8 |
| 20260507114545 | 67 | 86 | 13.0 | 17.4 | 0.00 | 0.00 | 0.00 | 72 | 1010.7 |
| 20260507113039 | 67 | 92 | 14.8 | 21.7 | 0.00 | 0.00 | 0.00 | 71 | 1010.6 |
| 20260507111548 | 67 | 117 | 11.3 | 15.6 | 0.00 | 0.00 | 0.00 | 71 | 1011.0 |
| 20260507110036 | 67 | 110 | 12.2 | 19.1 | 0.00 | 0.00 | 0.00 | 72 | 1011.0 |
| 20260507104536 | 67 | 93 | 13.9 | 20.0 | 0.00 | 0.00 | 0.00 | 73 | 1011.2 |
| 20260507103041 | 66 | 89 | 13.9 | 21.7 | 0.00 | 0.00 | 0.00 | 73 | 1011.2 |
| 20260507101538 | 66 | 111 | 14.8 | 20.0 | 0.00 | 0.00 | 0.00 | 74 | 1011.1 |